STARLINK-2629 (48686 NORAD) Tracking and Keplerian Element Data

This shows tracking and keplerian element data for the satellite.

Feedback or suggestion? Click here.




ElementValue
Catalog48686
NameSTARLINK-2629
Epoch Orbit1106
Epoch Day211.16667824
Epoch Year2021
RAAN104.6271
Inclination53.046
Eccentricity0.000235
Argument of Perigee32.6327
Mean Anonmoly40.2327
Mean Motion15.73156105
Decay Rate0.0008185
L11 48686U 21044BA 21211.16667824 .00081850 00000-0 58288-3 0 9996
L22 48686 53.0460 104.6271 0002350 32.6327 40.2327 15.73156105 11066

Live tracking and technical data element details for STARLINK-2629 (NORAD 48686). STARLINK-2629 can be tracked NOW for your location showing map with azimuth and elevation plus other details from your city location.

Track the satellite on the map from your city or location and see movement details for azimuth, elevation, latitude, longitude, range, height, and movement on the map or in text.







IsCatalogInMostPopularTable: catalog: 48686, numindb: 14
Update: records affected: 1



GetName: 48686 STARLINK-2629

Hit Count: updated at: Sat, 31 Jul 2021 14:24:44 GMT